Dewpoint
52 50 49 48 52 53 50 48 47 46 48 44 48 46 55 55 56 48 50 52 53 54 55 56 56 57 58 61 65 70 70 76 72 72 69 70 67 67 66 66 72 74 73 71
51 52 52 49 50 47 46 49 49 46 49 43 45 45 52 53 54 49 49 51 52 52 54 58 59 59 60 62 66 69 72 74 74 72 72 72 71 69 68 68 77 75 75 76
54 55 52 48 45 44 54 50 50 45 45 50 51 49 52 53 52 51 53 52 52 52 52 58 60 62 62 65 65 68 71 74 74 74 73 76 76 74 73 75 74 75 75 76
54 50 47 42 42 46 47 48 50 49 42 47 53 46 53 55 52 49 50 51 52 52 53 57 60 61 62 64 67 69 71 73 74 75 74 76 75 70 71 72 75 75 75 74
55 49 47 43 42 41 47 48 49 49 47 41 47 44 56 58 55 56 50 50 51 53 53 54 57 61 61 64 65 69 72 72 74 74 75 74 75 73 72 72 73 74 74 74
47 47 46 45 44 41 43 46 46 44 39 39 48 44 49 52 54 52 49 51 50 52 54 55 57 60 60 63 65 68 73 74 75 77 75 74 72 72 69 70 70 73 73 71
44 44 44 47 43 41 41 39 35 41 45 43 49 47 48 56 54 50 48 47 51 53 53 55 58 59 61 61 63 67 72 74 74 72 71 71 70 69 68 68 68 70 67 66
41 38 41 44 52 51 43 39 35 36 28 44 50 46 44 52 54 49 53 54 55 54 53 53 54 56 60 68 72 73 72 71 70 68 69 69 69 68 68 68 66 66 65 64
42 39 48 42 48 47 33 29 29 27 29 27 42 45 47 52 58 56 55 56 58 63 65 66 66 67 68 69 70 70 69 68 67 67 68 68 67 66 65 65 65 64 64 63
47 42 37 37 33 24 19 21 20 22 32 31 29 33 41 49 54 53 58 59 61 64 65 67 67 67 67 68 69 68 67 67 67 67 67 66 66 66 66 65 64 63 62 61
17 20 18 18 21 17 17 15 19 14 15 22 20 21 36 50 50 52 54 61 62 63 64 65 66 66 67 68 67 67 67 67 67 67 66 65 65 64 64 63 63 62 61 61
15 12 15 12 14 15 14 16 14 15 23 17 17 26 46 50 58 57 59 61 61 62 63 65 65 65 65 66 67 66 66 67 67 67 66 65 64 63 63 62 62 62 61 61
20 19 15 16 11 13 19 16 14 13 13 21 13 23 52 57 59 58 60 61 61 63 63 63 63 63 64 64 64 65 65 65 65 65 65 63 63 61 61 61 61 61 60 60
35 15 17 11 18 17 18 18 18 17 19 19 17 37 50 54 55 58 59 60 61 62 62 62 62 63 64 65 65 65 64 64 64 63 61 62 62 61 61 61 60 60 60 59
22 23 22 21 20 20 20 19 19 20 19 17 20 21 41 53 57 58 59 61 61 62 62 62 62 62 63 64 65 64 63 63 63 64 63 63 62 63 62 61 60 59 59 58
29 32 31 28 25 25 23 22 23 22 22 22 23 25 50 57 58 59 59 60 61 61 61 62 63 63 62 64 63 63 63 63 63 63 63 64 64 64 63 61 60 60 60 61
29 30 32 29 28 29 28 29 28 29 25 24 23 37 55 51 53 59 58 58 58 58 60 61 62 63 63 63 63 63 63 63 64 63 64 64 63 62 62 62 61 61 62 62
33 39 34 29 32 28 29 30 31 31 28 37 41 55 56 51 52 58 60 58 58 58 60 62 63 63 64 63 62 63 62 64 63 63 62 62 62 62 63 62 61 63 62 62
29 31 30 29 27 30 28 31 31 32 33 49 47 50 53 58 52 58 58 58 58 59 59 62 62 62 63 61 62 62 61 61 60 60 62 62 62 63 62 62 61 59 59 63
29 33 29 31 29 29 38 32 34 30 27 48 48 45 50 50 52 58 60 58 58 59 61 61 60 59 60 61 61 61 61 61 60 61 62 63 64 63 63 64 65 64 64 62
31 39 36 29 27 30 37 36 32 28 40 45 50 51 50 54 57 56 56 59 60 61 62 62 59 57 59 61 61 61 60 60 61 61 62 63 63 64 64 65 66 66 63 64
33 38 35 37 38 31 41 37 37 48 46 44 46 53 57 55 59 57 56 59 57 59 59 58 56 56 59 61 61 62 61 63 63 62 62 63 64 60 59 63 65 64 65 63
33 36 43 44 48 51 45 47 46 45 47 47 51 50 53 50 50 53 59 60 59 60 61 56 54 58 59 61 61 62 64 64 64 63 63 63 63 63 58 64 62 59 62 59
41 47 38 47 47 47 40 43 44 43 46 47 48 48 48 49 51 52 55 59 61 61 59 54 54 57 60 61 61 62 64 63 63 62 63 63 62 61 62 59 58 58 56 55
42 45 44 45 47 44 40 41 45 45 46 45 43 42 42 43 51 52 56 55 59 61 59 57 58 60 61 62 62 61 63 63 61 61 60 59 56 58 57 60 55 55 59 55
41 47 44 44 47 44 49 45 45 46 44 43 42 43 43 40 43 52 57 58 59 60 61 61 61 62 61 62 62 63 64 64 62 60 56 52 50 50 52 56 58 53 49 48
Lifted_Index
-2 -2 -2 -2 -1 -1 -1 -1 -1 -2 -2 -2 -2 -3 -3 -2 -1 -1 -0 -0 -0 -0 -0 -0 0 0 1 0 -1 -1 -2 -3 -3 -3 -2 -2 -2 -2 -1 -2 -3 -4 -4 -3
-2 -2 -2 -2 -2 -1 -1 -1 -2 -2 -2 -2 -2 -3 -3 -2 -2 -1 -1 -1 -1 -0 -0 -1 -1 -0 -0 -0 -1 -2 -2 -3 -3 -3 -3 -3 -3 -2 -2 -3 -4 -5 -5 -5
-2 -2 -2 -2 -2 -1 -1 -1 -1 -2 -2 -2 -2 -2 -2 -2 -2 -2 -2 -2 -1 -1 -1 -1 -1 -1 -1 -1 -2 -2 -3 -4 -4 -4 -4 -4 -3 -3 -3 -4 -5 -5 -5 -5
-3 -2 -2 -2 -2 -2 -1 -1 -1 -1 -2 -2 -2 -1 -1 -1 -2 -2 -3 -2 -2 -1 -1 -1 -1 -2 -2 -2 -2 -3 -3 -4 -5 -5 -4 -4 -4 -4 -4 -4 -5 -5 -5 -5
-3 -2 -2 -2 -2 -2 -1 -1 -1 -1 -2 -2 -1 -1 -1 -1 -2 -2 -2 -2 -2 -1 -1 -1 -1 -2 -2 -2 -3 -4 -4 -5 -5 -5 -5 -4 -4 -4 -4 -4 -4 -4 -5 -5
-2 -2 -1 -1 -2 -2 -2 -1 -1 -1 -1 -1 -1 -1 -1 -1 -1 -1 -2 -2 -2 -2 -2 -2 -2 -2 -2 -2 -3 -4 -5 -6 -5 -5 -5 -4 -4 -4 -3 -3 -3 -3 -4 -4
-2 -2 -1 -1 -2 -2 -2 -2 -1 -1 -1 -1 -1 -1 -0 -1 -1 -1 -2 -2 -2 -2 -2 -2 -2 -2 -3 -3 -4 -4 -5 -5 -5 -5 -5 -4 -4 -3 -2 -2 -2 -2 -2 -2
-2 -1 -1 -1 -2 -2 -2 -2 -1 -1 -1 -1 -1 -0 0 -0 -1 -2 -4 -4 -4 -4 -4 -3 -3 -3 -3 -4 -4 -5 -5 -4 -4 -4 -4 -3 -2 -1 -0 0 -0 -1 -1 -1
-1 -0 -0 -1 -2 -2 -1 -1 -0 -1 -1 -1 -1 -1 -0 -0 -1 -3 -5 -6 -6 -6 -5 -5 -4 -4 -3 -4 -4 -4 -4 -4 -4 -3 -3 -2 -1 1 1 1 1 1 1 1
-0 1 1 -0 -1 -1 -0 0 0 -0 -1 -1 -1 -1 -1 -1 -1 -2 -3 -5 -6 -6 -6 -5 -5 -4 -4 -3 -4 -4 -4 -3 -3 -3 -3 -2 -0 1 1 2 2 2 2 2
0 1 1 -0 -1 -1 -1 -0 -0 -0 -1 -1 -1 -1 -1 -2 -2 -2 -2 -4 -5 -5 -5 -5 -5 -4 -4 -4 -4 -3 -3 -3 -3 -3 -2 -1 -0 1 1 1 1 2 2 2
0 0 -0 -0 -1 -1 -1 -1 -1 -1 -1 -1 -1 -1 -2 -3 -4 -3 -3 -4 -4 -4 -4 -4 -4 -4 -4 -4 -3 -3 -3 -2 -2 -2 -2 -1 0 1 1 1 0 0 1 1
1 1 0 -0 -0 -0 -0 -0 -1 -1 -1 -1 -1 -2 -3 -4 -4 -4 -4 -4 -4 -3 -3 -3 -3 -3 -4 -3 -3 -3 -2 -2 -2 -2 -1 -1 0 0 0 -0 -0 0 1 2
2 2 1 1 1 0 0 -0 -0 -1 -1 -1 -1 -2 -4 -4 -4 -4 -4 -4 -4 -4 -4 -3 -3 -3 -3 -3 -3 -2 -2 -2 -2 -2 -1 -1 -0 -1 -0 -0 0 1 3 4
2 1 1 1 1 1 1 1 0 0 -0 -0 -0 -1 -3 -4 -4 -4 -5 -5 -4 -4 -4 -4 -3 -3 -3 -3 -2 -2 -2 -2 -1 -1 -1 -1 -1 -1 -0 1 2 3 4 4
0 0 0 1 1 1 1 1 1 1 1 1 0 -2 -4 -4 -3 -4 -5 -5 -5 -4 -4 -3 -3 -3 -3 -2 -2 -2 -2 -2 -1 -1 -1 -1 -1 -0 0 1 2 3 3 3
-0 -0 -0 0 0 0 0 0 0 0 1 1 -0 -2 -4 -3 -2 -3 -5 -6 -5 -4 -4 -3 -3 -3 -3 -2 -2 -2 -2 -2 -1 -1 -1 -0 -0 0 1 1 1 2 2 2
-1 -1 -0 0 0 -0 -0 -0 -0 -0 -0 -1 -1 -2 -2 -2 -2 -4 -5 -6 -5 -4 -4 -3 -3 -3 -3 -2 -2 -2 -2 -1 -1 -1 -0 -0 0 0 0 1 1 1 1 1
-1 -1 -0 -0 -0 -0 -0 -0 -0 -0 -1 -1 -2 -2 -2 -3 -4 -5 -5 -5 -5 -4 -4 -3 -3 -3 -2 -2 -1 -1 -1 -0 -0 -0 -0 -0 -0 0 0 0 1 1 1 1
-1 -1 -0 -0 -1 -1 -1 -0 0 0 -1 -2 -2 -2 -3 -4 -5 -4 -4 -5 -5 -4 -4 -3 -3 -2 -1 -1 -1 -0 0 0 0 0 0 -0 0 0 0 0 0 1 1 1
-1 -1 -1 -1 -1 -1 -1 -0 -0 -1 -2 -2 -2 -3 -4 -4 -4 -3 -3 -4 -4 -4 -4 -3 -2 -1 -1 -1 -0 -0 0 0 1 1 0 0 0 0 0 -0 -0 -0 0 0
-1 -1 -2 -1 -1 -1 -1 -1 -1 -2 -2 -2 -3 -3 -4 -4 -3 -3 -3 -4 -4 -4 -4 -2 -1 -0 -1 -1 -1 -1 -0 -0 0 0 0 -0 -0 -0 0 -0 -0 -1 -1 -1
-1 -2 -2 -1 -1 -1 -1 -1 -2 -2 -3 -3 -3 -3 -3 -3 -3 -3 -4 -4 -4 -4 -3 -1 -0 -0 -1 -1 -1 -1 -1 -1 -0 -0 -0 -1 -1 -1 -0 -0 -1 -1 -1 -1
-2 -2 -2 -2 -1 -1 -1 -1 -2 -2 -2 -2 -2 -2 -2 -2 -2 -3 -3 -4 -4 -4 -3 -1 -0 -1 -1 -1 -1 -2 -2 -2 -1 -1 -1 -1 -1 -1 -1 -1 -1 -0 -0 -0
-2 -2 -2 -2 -2 -2 -1 -1 -2 -2 -2 -1 -1 -0 -0 -1 -1 -2 -2 -2 -3 -3 -2 -1 -1 -1 -2 -2 -2 -2 -2 -2 -2 -1 -1 -0 0 -0 -0 -0 -0 0 1 1
-1 -1 -1 -2 -2 -2 -2 -2 -2 -1 -1 -1 -0 0 1 1 -0 -1 -2 -2 -2 -3 -2 -2 -1 -2 -2 -2 -2 -2 -2 -2 -2 -1 -0 1 1 1 1 0 0 1 1 2